Location: Trois-Rivi�res
(46.3500°N, 72.5500°W)
Time: 05:36:25
(UTC-05:00)

N. Korean satellite - Visible Passes

Search period start: 22 January 2018 00:00
Search period end: 01 February 2018 00:00
Orbit: 458 x 515 km, 97.2° (Epoch: 21 January)

Date Brightness Start Highest point End Pass type
(mag) Time Alt. Az. Time Alt. Az. Time Alt. Az.
22 Jan 8.9 06:00:24 10° NE 06:03:22 26° E 06:06:19 10° SSE visible
22 Jan 8.3 18:12:12 10° SSW 18:15:31 35° W 18:18:48 10° NNW visible
23 Jan 9.9 05:37:35 10° ENE 05:39:32 14° E 05:41:27 10° SE visible
23 Jan 6.8 17:48:14 10° S 17:51:48 72° WSW 17:55:19 10° NNW visible
24 Jan 6.4 06:46:09 10° N 06:49:37 78° WNW 06:53:04 10° SSW visible
24 Jan 6.6 17:24:39 10° SSE 17:28:09 56° ENE 17:31:36 10° N visible
24 Jan 10.3 19:01:19 10° W 19:02:00 10° W 19:02:40 10° WNW visible
25 Jan 7.5 06:22:31 10° NNE 06:25:55 50° E 06:29:18 10° S visible
25 Jan 9.5 18:35:29 10° SW 18:38:07 19° W 18:40:43 10° NW visible
26 Jan 9.0 05:59:12 10° NE 06:02:09 26° E 06:05:06 10° SSE visible
26 Jan 8.3 18:11:01 10° SSW 18:14:18 36° W 18:17:34 10° NNW visible
27 Jan 9.9 05:36:23 10° ENE 05:38:17 14° E 05:40:12 10° SE visible
27 Jan 6.7 17:47:03 10° S 17:50:34 73° WSW 17:54:04 10° NNW visible
28 Jan 6.4 06:44:53 10° N 06:48:22 80° WNW 06:51:51 10° SSW visible
28 Jan 6.6 17:23:28 10° SSE 17:26:55 54° ENE 17:30:20 10° N visible
28 Jan 10.3 19:00:01 10° WSW 19:00:44 10° W 19:01:28 10° WNW visible
29 Jan 7.6 06:21:16 10° NNE 06:24:40 49° E 06:28:04 10° S visible
29 Jan 9.5 18:34:14 10° SW 18:36:51 19° W 18:39:28 10° NW visible
30 Jan 9.1 05:57:56 10° NE 06:00:53 25° E 06:03:50 10° SSE visible
30 Jan 8.2 18:09:46 10° SSW 18:13:02 36° W 18:16:18 10° NNW visible
31 Jan 10.0 05:35:09 10° ENE 05:37:01 14° E 05:38:54 10° SE visible
31 Jan 6.7 17:45:48 10° S 17:49:18 75° WSW 17:52:47 10° NNW visible
